QPF
0.05 0.05 0.05 0.11 0.13 0.10 0.11 0.11 0.08 0.06 0.04 0.02 0.01 0.01 0.00 0.00 0.00 0.00 0.00 0.00 0.00 0.00 0.00 0.00 0.00 0.00 0.00 0.00 0.00 0.00 0.00 0.00 0.00 0.00 0.00 0.00 0.00 0.00 0.01 0.01 0.00 0.00 0.01 0.03 0.06 0.06 0.02 0.02 0.02 0.01 0.01 0.01 0.00 0.00
0.06 0.03 0.05 0.10 0.10 0.07 0.04 0.01 0.01 0.01 0.01 0.00 0.00 0.00 0.00 0.00 0.00 0.00 0.00 0.00 0.00 0.00 0.00 0.00 0.00 0.00 0.00 0.00 0.00 0.00 0.00 0.00 0.00 0.00 0.00 0.00 0.00 0.00 0.01 0.06 0.00 0.00 0.00 0.02 0.04 0.04 0.03 0.03 0.02 0.01 0.00 0.00 0.00 0.00
0.06 0.04 0.05 0.06 0.05 0.03 0.02 0.01 0.00 0.00 0.00 0.00 0.00 0.00 0.00 0.00 0.00 0.00 0.00 0.00 0.00 0.00 0.00 0.00 0.00 0.00 0.00 0.00 0.00 0.00 0.00 0.00 0.00 0.00 0.00 0.00 0.00 0.00 0.01 0.02 0.01 0.02 0.00 0.01 0.02 0.02 0.01 0.01 0.01 0.01 0.00 0.00 0.00 0.00
0.05 0.04 0.06 0.07 0.04 0.02 0.01 0.01 0.00 0.00 0.00 0.00 0.00 0.00 0.00 0.00 0.00 0.00 0.00 0.00 0.00 0.00 0.00 0.00 0.00 0.00 0.00 0.00 0.00 0.00 0.00 0.00 0.00 0.00 0.00 0.00 0.00 0.00 0.00 0.01 0.00 0.01 0.01 0.01 0.01 0.01 0.00 0.00 0.01 0.00 0.00 0.00 0.00 0.00
0.03 0.04 0.07 0.06 0.03 0.01 0.00 0.00 0.00 0.00 0.00 0.00 0.00 0.00 0.00 0.00 0.00 0.00 0.00 0.00 0.00 0.00 0.00 0.00 0.00 0.00 0.00 0.00 0.00 0.00 0.00 0.00 0.00 0.00 0.00 0.00 0.00 0.00 0.00 0.00 0.00 0.00 0.01 0.01 0.00 0.00 0.00 0.00 0.00 0.00 0.00 0.00 0.00 0.00
0.02 0.07 0.07 0.02 0.01 0.00 0.00 0.00 0.00 0.00 0.00 0.00 0.00 0.00 0.00 0.00 0.00 0.00 0.00 0.00 0.00 0.00 0.00 0.00 0.00 0.00 0.00 0.00 0.00 0.00 0.00 0.00 0.00 0.00 0.00 0.00 0.00 0.00 0.00 0.00 0.00 0.00 0.01 0.00 0.00 0.00 0.00 0.00 0.00 0.00 0.00 0.00 0.00 0.00
0.08 0.10 0.04 0.01 0.01 0.00 0.00 0.00 0.01 0.00 0.00 0.00 0.00 0.00 0.00 0.00 0.00 0.00 0.00 0.00 0.00 0.00 0.00 0.00 0.00 0.00 0.00 0.00 0.00 0.00 0.00 0.00 0.00 0.00 0.00 0.00 0.00 0.00 0.00 0.00 0.00 0.00 0.01 0.00 0.00 0.00 0.00 0.00 0.00 0.00 0.00 0.00 0.00 0.00
0.07 0.03 0.01 0.01 0.00 0.00 0.01 0.01 0.01 0.00 0.00 0.00 0.00 0.00 0.00 0.00 0.00 0.00 0.00 0.00 0.00 0.00 0.00 0.00 0.00 0.00 0.00 0.00 0.00 0.00 0.00 0.00 0.00 0.00 0.00 0.00 0.00 0.00 0.00 0.01 0.00 0.00 0.00 0.00 0.00 0.00 0.00 0.00 0.00 0.00 0.00 0.00 0.00 0.00
0.00 0.00 0.01 0.00 0.00 0.00 0.01 0.01 0.01 0.00 0.00 0.00 0.00 0.00 0.00 0.00 0.00 0.00 0.00 0.00 0.00 0.00 0.00 0.00 0.00 0.00 0.00 0.00 0.00 0.00 0.00 0.00 0.00 0.00 0.00 0.00 0.00 0.00 0.00 0.00 0.00 0.00 0.00 0.00 0.00 0.00 0.00 0.00 0.00 0.00 0.00 0.00 0.00 0.00
0.00 0.00 0.00 0.00 0.00 0.00 0.00 0.01 0.01 0.00 0.00 0.00 0.00 0.00 0.00 0.00 0.00 0.00 0.00 0.00 0.00 0.00 0.00 0.00 0.00 0.00 0.00 0.00 0.00 0.00 0.00 0.00 0.00 0.00 0.00 0.00 0.00 0.00 0.00 0.00 0.00 0.00 0.00 0.00 0.00 0.00 0.00 0.00 0.00 0.00 0.00 0.00 0.00 0.00
0.01 0.00 0.00 0.00 0.00 0.00 0.01 0.01 0.00 0.00 0.00 0.00 0.00 0.00 0.00 0.00 0.00 0.00 0.00 0.00 0.00 0.00 0.00 0.00 0.00 0.00 0.00 0.00 0.00 0.00 0.00 0.00 0.00 0.00 0.00 0.00 0.00 0.00 0.00 0.00 0.00 0.00 0.00 0.00 0.00 0.00 0.00 0.00 0.00 0.00 0.00 0.00 0.00 0.00
0.02 0.01 0.00 0.00 0.00 0.00 0.01 0.00 0.00 0.00 0.00 0.00 0.00 0.00 0.00 0.00 0.00 0.00 0.00 0.00 0.00 0.00 0.00 0.00 0.00 0.00 0.00 0.00 0.00 0.00 0.00 0.00 0.00 0.01 0.00 0.00 0.00 0.00 0.00 0.00 0.00 0.00 0.00 0.00 0.00 0.00 0.00 0.00 0.00 0.00 0.00 0.00 0.00 0.00
0.03 0.01 0.00 0.00 0.00 0.00 0.00 0.00 0.00 0.00 0.00 0.00 0.00 0.00 0.00 0.00 0.00 0.00 0.00 0.00 0.00 0.00 0.00 0.00 0.00 0.00 0.00 0.00 0.00 0.00 0.00 0.00 0.00 0.00 0.00 0.00 0.00 0.00 0.00 0.00 0.00 0.00 0.00 0.00 0.00 0.00 0.00 0.00 0.00 0.00 0.00 0.00 0.00 0.00
0.02 0.01 0.01 0.01 0.01 0.01 0.00 0.00 0.00 0.00 0.00 0.00 0.00 0.00 0.00 0.00 0.00 0.00 0.00 0.00 0.00 0.00 0.00 0.00 0.00 0.00 0.00 0.00 0.00 0.00 0.00 0.00 0.00 0.00 0.00 0.00 0.00 0.00 0.00 0.00 0.00 0.00 0.00 0.00 0.00 0.00 0.00 0.00 0.00 0.00 0.00 0.00 0.00 0.00
0.02 0.01 0.02 0.01 0.01 0.00 0.00 0.00 0.00 0.00 0.00 0.00 0.00 0.00 0.00 0.00 0.00 0.00 0.00 0.00 0.00 0.00 0.00 0.00 0.00 0.00 0.00 0.00 0.00 0.00 0.00 0.00 0.00 0.00 0.00 0.00 0.00 0.00 0.00 0.00 0.00 0.00 0.00 0.00 0.00 0.00 0.00 0.00 0.00 0.00 0.00 0.00 0.00 0.00
0.04 0.04 0.02 0.01 0.00 0.00 0.00 0.00 0.00 0.00 0.00 0.00 0.00 0.00 0.00 0.01 0.00 0.00 0.00 0.00 0.00 0.00 0.00 0.00 0.00 0.00 0.00 0.00 0.00 0.00 0.00 0.00 0.00 0.00 0.00 0.00 0.00 0.00 0.00 0.00 0.00 0.00 0.00 0.00 0.00 0.00 0.00 0.00 0.00 0.00 0.00 0.00 0.00 0.00
0.01 0.02 0.03 0.01 0.00 0.00 0.00 0.00 0.00 0.00 0.00 0.00 0.01 0.01 0.00 0.00 0.00 0.00 0.00 0.00 0.00 0.00 0.00 0.00 0.00 0.00 0.00 0.00 0.00 0.00 0.00 0.00 0.00 0.00 0.00 0.00 0.00 0.00 0.00 0.00 0.00 0.00 0.00 0.00 0.00 0.00 0.00 0.00 0.00 0.00 0.00 0.00 0.00 0.00
0.00 0.00 0.00 0.00 0.00 0.00 0.00 0.00 0.00 0.00 0.00 0.00 0.00 0.01 0.01 0.01 0.01 0.03 0.03 0.00 0.00 0.00 0.00 0.00 0.00 0.00 0.00 0.00 0.00 0.00 0.00 0.00 0.00 0.00 0.00 0.00 0.00 0.00 0.00 0.00 0.00 0.00 0.00 0.00 0.00 0.00 0.00 0.00 0.00 0.00 0.00 0.00 0.00 0.00
0.00 0.00 0.00 0.00 0.00 0.00 0.00 0.00 0.00 0.00 0.00 0.00 0.00 0.01 0.01 0.00 0.00 0.01 0.01 0.01 0.01 0.00 0.00 0.00 0.00 0.00 0.00 0.00 0.00 0.00 0.00 0.00 0.00 0.00 0.00 0.00 0.00 0.00 0.00 0.00 0.00 0.00 0.00 0.00 0.00 0.00 0.00 0.00 0.00 0.00 0.00 0.00 0.00 0.00
0.00 0.00 0.00 0.00 0.00 0.00 0.00 0.00 0.00 0.00 0.00 0.00 0.00 0.00 0.00 0.00 0.00 0.00 0.00 0.01 0.00 0.00 0.00 0.00 0.00 0.00 0.00 0.00 0.00 0.00 0.00 0.00 0.00 0.00 0.00 0.00 0.00 0.00 0.00 0.00 0.00 0.00 0.00 0.00 0.00 0.00 0.00 0.00 0.00 0.00 0.00 0.00 0.00 0.00
0.00 0.00 0.00 0.00 0.00 0.00 0.00 0.00 0.00 0.00 0.00 0.00 0.00 0.00 0.00 0.00 0.00 0.00 0.00 0.00 0.00 0.00 0.00 0.00 0.00 0.00 0.00 0.00 0.00 0.00 0.00 0.00 0.00 0.00 0.00 0.00 0.00 0.00 0.00 0.00 0.00 0.00 0.00 0.00 0.00 0.00 0.00 0.00 0.00 0.00 0.00 0.00 0.00 0.00
0.01 0.00 0.00 0.00 0.00 0.00 0.00 0.00 0.00 0.00 0.00 0.00 0.00 0.00 0.00 0.00 0.00 0.00 0.00 0.00 0.00 0.00 0.00 0.00 0.00 0.00 0.00 0.00 0.00 0.00 0.00 0.00 0.00 0.00 0.00 0.00 0.00 0.00 0.00 0.00 0.00 0.00 0.00 0.00 0.00 0.00 0.00 0.00 0.00 0.00 0.00 0.00 0.00 0.00
0.00 0.00 0.00 0.00 0.00 0.00 0.01 0.01 0.00 0.00 0.00 0.00 0.00 0.00 0.00 0.00 0.00 0.00 0.00 0.00 0.00 0.00 0.00 0.00 0.00 0.00 0.00 0.00 0.00 0.00 0.00 0.00 0.00 0.00 0.00 0.00 0.00 0.00 0.00 0.00 0.00 0.00 0.00 0.00 0.00 0.00 0.00 0.00 0.00 0.00 0.00 0.00 0.00 0.00
0.00 0.00 0.00 0.00 0.00 0.00 0.04 0.01 0.01 0.01 0.01 0.01 0.01 0.00 0.00 0.00 0.00 0.00 0.00 0.00 0.00 0.00 0.00 0.00 0.00 0.00 0.00 0.00 0.00 0.00 0.00 0.00 0.00 0.00 0.00 0.00 0.00 0.00 0.00 0.00 0.00 0.00 0.00 0.00 0.00 0.00 0.00 0.00 0.00 0.00 0.00 0.00 0.00 0.00
0.00 0.00 0.00 0.00 0.00 0.00 0.02 0.01 0.01 0.01 0.01 0.01 0.01 0.00 0.00 0.00 0.00 0.00 0.00 0.00 0.00 0.00 0.00 0.00 0.00 0.00 0.00 0.00 0.00 0.00 0.00 0.00 0.00 0.00 0.00 0.00 0.00 0.00 0.00 0.00 0.00 0.00 0.00 0.00 0.00 0.00 0.00 0.00 0.00 0.00 0.00 0.00 0.00 0.00
0.00 0.00 0.00 0.00 0.00 0.00 0.00 0.00 0.00 0.00 0.01 0.02 0.01 0.00 0.00 0.00 0.00 0.00 0.00 0.00 0.00 0.00 0.00 0.00 0.00 0.00 0.00 0.00 0.00 0.00 0.00 0.00 0.00 0.00 0.00 0.00 0.00 0.00 0.00 0.00 0.00 0.00 0.00 0.00 0.00 0.00 0.00 0.00 0.00 0.00 0.00 0.00 0.00 0.00
0.00 0.00 0.00 0.00 0.00 0.00 0.00 0.00 0.00 0.00 0.00 0.00 0.00 0.00 0.00 0.00 0.00 0.00 0.00 0.00 0.00 0.00 0.00 0.00 0.00 0.00 0.00 0.00 0.00 0.00 0.00 0.00 0.00 0.00 0.00 0.00 0.00 0.00 0.00 0.00 0.00 0.00 0.00 0.00 0.00 0.00 0.00 0.00 0.00 0.00 0.00 0.00 0.00 0.00
0.00 0.00 0.00 0.00 0.00 0.00 0.00 0.00 0.00 0.00 0.00 0.00 0.00 0.00 0.00 0.00 0.00 0.00 0.00 0.00 0.00 0.00 0.00 0.00 0.00 0.00 0.00 0.00 0.00 0.00 0.00 0.00 0.00 0.00 0.00 0.00 0.00 0.00 0.00 0.00 0.00 0.00 0.00 0.00 0.00 0.00 0.00 0.00 0.00 0.00 0.00 0.00 0.00 0.00
0.00 0.00 0.00 0.00 0.00 0.00 0.00 0.00 0.00 0.00 0.00 0.00 0.00 0.00 0.00 0.00 0.00 0.00 0.00 0.00 0.00 0.00 0.00 0.00 0.00 0.00 0.00 0.00 0.00 0.01 0.00 0.00 0.00 0.00 0.00 0.00 0.00 0.00 0.00 0.00 0.00 0.00 0.00 0.00 0.00 0.00 0.00 0.00 0.00 0.00 0.00 0.00 0.00 0.00
0.00 0.00 0.00 0.00 0.00 0.00 0.00 0.00 0.00 0.00 0.00 0.00 0.00 0.00 0.00 0.00 0.00 0.00 0.00 0.00 0.00 0.00 0.00 0.00 0.01 0.00 0.00 0.00 0.00 0.01 0.01 0.00 0.00 0.00 0.00 0.00 0.00 0.00 0.00 0.00 0.00 0.00 0.00 0.00 0.00 0.00 0.00 0.00 0.00 0.00 0.00 0.00 0.00 0.00
0.00 0.00 0.00 0.00 0.00 0.00 0.01 0.01 0.00 0.00 0.00 0.00 0.00 0.00 0.00 0.00 0.00 0.00 0.00 0.00 0.00 0.00 0.00 0.00 0.00 0.00 0.00 0.00 0.00 0.00 0.01 0.00 0.00 0.00 0.00 0.00 0.00 0.00 0.00 0.00 0.00 0.00 0.00 0.00 0.00 0.00 0.00 0.00 0.00 0.00 0.00 0.00 0.00 0.00
0.00 0.00 0.00 0.00 0.00 0.01 0.02 0.02 0.01 0.01 0.00 0.00 0.00 0.00 0.00 0.00 0.00 0.00 0.00 0.00 0.00 0.01 0.01 0.00 0.00 0.01 0.01 0.02 0.02 0.01 0.00 0.00 0.00 0.00 0.00 0.00 0.00 0.00 0.00 0.00 0.00 0.00 0.00 0.00 0.00 0.00 0.00 0.00 0.00 0.00 0.00 0.00 0.00 0.00
0.01 0.01 0.01 0.01 0.00 0.00 0.01 0.02 0.01 0.00 0.00 0.00 0.00 0.00 0.00 0.00 0.00 0.00 0.00 0.00 0.01 0.01 0.01 0.01 0.01 0.01 0.02 0.02 0.01 0.01 0.00 0.00 0.00 0.00 0.00 0.00 0.00 0.00 0.00 0.00 0.00 0.00 0.00 0.00 0.00 0.00 0.00 0.00 0.00 0.00 0.00 0.00 0.00 0.00
MSLP
998.15 998.61 998.93 999.06 999.23 999.45 999.83 1000.33 1000.77 1001.33 1002.13 1003.07 1003.79 1004.49 1004.95 1005.17 1005.11 1005.35 1008.00 1007.75 1007.33 1010.44 1012.51 1012.43 1012.70 1013.54 1014.27 1014.78 1015.75 1016.96 1017.40 1017.60 1017.71 1017.73 1017.79 1017.70 1017.41 1017.40 1017.29 1017.25 1017.19 1017.48 1017.73 1017.99 1018.24 1018.87 1020.18 1020.63 1020.27 1020.68 1021.90 1022.52 1023.01 1023.37
998.57 999.04 999.51 999.67 1000.22 1000.64 1000.92 1001.41 1001.90 1002.34 1002.91 1003.81 1004.41 1004.87 1005.05 1005.09 1005.35 1005.72 1007.68 1008.15 1008.08 1009.95 1012.95 1013.25 1013.41 1013.66 1013.51 1014.15 1015.31 1016.68 1017.00 1017.23 1017.55 1017.93 1018.29 1018.16 1017.86 1017.70 1017.52 1017.43 1017.75 1018.17 1018.55 1018.89 1019.81 1020.55 1021.40 1021.67 1021.73 1022.21 1022.32 1022.94 1023.53 1023.97
999.23 999.71 1000.15 1000.71 1001.23 1001.58 1001.89 1002.35 1002.86 1003.39 1003.89 1004.49 1004.82 1004.99 1005.38 1005.69 1006.04 1006.41 1008.33 1008.85 1008.87 1011.50 1013.05 1013.53 1014.21 1014.35 1014.03 1014.40 1014.63 1015.68 1017.02 1017.16 1017.47 1017.83 1018.13 1018.37 1018.13 1018.00 1017.86 1018.14 1018.29 1018.81 1019.11 1019.48 1020.31 1021.34 1021.89 1022.47 1022.93 1023.23 1023.49 1023.87 1024.15 1024.83
999.99 1000.45 1000.96 1001.59 1002.31 1002.62 1003.00 1003.35 1003.87 1004.32 1004.75 1005.11 1005.42 1005.82 1006.20 1006.60 1006.97 1007.08 1008.52 1009.37 1009.41 1011.16 1013.47 1015.04 1014.58 1014.79 1015.03 1014.81 1014.96 1015.28 1016.19 1017.04 1017.57 1017.92 1018.07 1018.20 1018.13 1018.33 1018.36 1018.58 1018.83 1019.52 1019.62 1020.02 1020.84 1021.65 1022.45 1023.07 1023.55 1023.94 1024.39 1024.71 1025.18 1025.83
1000.74 1001.40 1001.82 1002.52 1002.93 1003.33 1003.87 1004.38 1004.78 1005.21 1005.69 1006.12 1006.47 1006.63 1006.89 1007.17 1007.60 1007.99 1008.97 1010.06 1009.98 1010.63 1013.47 1014.95 1015.07 1015.59 1015.57 1015.51 1015.81 1016.08 1016.47 1017.18 1017.71 1018.06 1018.14 1018.39 1018.49 1018.58 1018.77 1018.99 1019.50 1019.95 1020.22 1020.45 1020.86 1021.39 1022.20 1023.31 1023.97 1024.43 1024.89 1025.49 1025.99 1026.39
1001.46 1002.09 1002.91 1003.41 1003.88 1004.36 1004.77 1005.28 1005.76 1006.14 1006.57 1006.87 1007.19 1007.37 1007.69 1008.03 1008.19 1008.35 1010.13 1010.62 1010.53 1010.65 1012.74 1015.15 1016.23 1016.15 1016.20 1016.19 1016.44 1016.78 1017.15 1017.49 1017.90 1018.08 1018.51 1018.68 1018.68 1018.73 1018.93 1019.46 1020.23 1020.51 1020.75 1020.88 1021.41 1022.06 1022.61 1023.62 1024.35 1024.91 1025.43 1026.21 1026.69 1027.10
1002.18 1002.96 1003.63 1004.18 1004.63 1005.10 1005.55 1005.95 1006.31 1006.84 1007.29 1007.57 1008.00 1008.20 1008.46 1008.42 1008.78 1010.20 1011.18 1011.53 1011.21 1011.21 1013.05 1015.47 1016.30 1016.41 1016.37 1016.62 1017.12 1017.41 1017.61 1018.07 1018.15 1018.48 1018.76 1018.72 1018.78 1018.74 1019.11 1019.63 1020.47 1020.89 1021.27 1021.65 1022.07 1022.59 1023.54 1024.12 1024.82 1025.54 1026.13 1026.87 1027.33 1027.75
1003.18 1003.86 1004.36 1004.85 1005.45 1005.85 1006.34 1006.71 1007.22 1007.70 1008.07 1008.39 1008.77 1008.82 1009.31 1009.42 1009.99 1011.09 1011.67 1011.47 1011.45 1012.15 1013.27 1015.29 1016.49 1016.64 1016.57 1016.99 1017.69 1018.21 1018.27 1018.47 1018.63 1018.87 1018.98 1018.89 1019.15 1019.17 1019.63 1020.13 1020.77 1021.27 1021.64 1022.14 1022.61 1022.86 1023.25 1024.51 1025.49 1026.25 1026.85 1027.39 1027.71 1028.23
1004.06 1004.59 1005.22 1005.69 1006.15 1006.59 1007.06 1007.53 1008.00 1008.40 1008.74 1009.00 1009.32 1009.54 1009.75 1010.85 1011.87 1012.51 1012.18 1011.99 1012.00 1012.99 1014.31 1015.40 1016.21 1016.76 1016.87 1017.55 1018.13 1018.63 1018.63 1018.86 1019.19 1018.96 1019.01 1019.30 1019.57 1019.73 1019.93 1020.24 1020.75 1021.25 1021.68 1022.53 1023.23 1023.73 1024.39 1025.05 1025.97 1026.67 1027.22 1027.84 1028.24 1028.98
1004.90 1005.51 1005.95 1006.66 1006.93 1007.50 1008.06 1008.35 1008.73 1009.25 1009.54 1009.41 1009.95 1010.95 1012.38 1013.00 1012.74 1012.48 1012.61 1012.92 1013.53 1014.49 1015.11 1016.14 1016.56 1016.80 1017.24 1017.98 1018.41 1018.75 1018.87 1019.01 1019.05 1019.19 1019.11 1019.40 1019.77 1020.35 1020.76 1020.89 1021.14 1021.60 1022.12 1022.77 1023.47 1024.43 1024.99 1025.65 1026.39 1027.20 1027.88 1028.50 1028.99 1029.90
1005.79 1006.41 1006.95 1007.46 1007.83 1008.37 1008.85 1009.29 1009.44 1009.73 1009.80 1010.59 1011.95 1012.85 1013.33 1013.01 1013.02 1013.48 1014.38 1014.85 1015.50 1016.00 1016.25 1016.78 1016.73 1016.81 1017.52 1017.63 1018.13 1018.73 1018.85 1019.05 1019.02 1019.22 1019.31 1019.81 1019.99 1020.58 1021.36 1021.71 1022.04 1022.34 1022.81 1023.36 1023.61 1024.02 1024.79 1025.54 1026.71 1027.75 1028.67 1029.39 1030.20 1031.02
1006.68 1007.23 1007.84 1008.26 1008.83 1009.29 1009.73 1010.11 1010.23 1010.56 1011.24 1011.39 1011.78 1012.89 1013.32 1013.59 1014.01 1014.60 1015.52 1015.87 1015.95 1016.52 1016.94 1017.06 1017.07 1017.02 1017.49 1017.51 1017.98 1018.80 1018.78 1019.13 1019.13 1019.31 1019.67 1020.03 1020.09 1020.87 1021.72 1022.45 1023.01 1023.43 1023.87 1024.39 1024.78 1025.26 1025.91 1026.65 1027.54 1028.52 1029.55 1030.46 1031.13 1031.83
1007.62 1008.21 1008.64 1009.25 1009.69 1010.16 1010.55 1010.67 1010.71 1011.39 1011.69 1011.92 1012.31 1013.54 1014.08 1014.88 1015.15 1015.39 1016.01 1016.36 1016.61 1016.68 1016.94 1017.06 1017.39 1017.34 1017.65 1017.71 1018.36 1018.40 1018.85 1019.32 1019.39 1019.70 1019.86 1019.83 1020.68 1021.59 1022.41 1023.20 1023.97 1024.53 1024.98 1025.55 1026.21 1026.75 1027.34 1028.05 1028.75 1029.45 1030.43 1031.30 1031.95 1032.57
1008.66 1009.13 1009.71 1010.09 1010.47 1010.84 1011.20 1011.44 1011.64 1011.71 1012.06 1013.16 1013.87 1014.80 1015.28 1015.62 1015.65 1015.77 1015.91 1016.11 1016.48 1016.53 1016.70 1016.96 1017.45 1017.47 1018.11 1018.24 1018.82 1018.85 1019.44 1019.36 1019.76 1020.17 1019.92 1020.16 1021.08 1022.15 1023.09 1023.93 1024.73 1025.51 1026.14 1026.71 1027.37 1027.90 1028.46 1029.09 1029.95 1030.75 1031.25 1031.81 1032.32 1032.80
1009.44 1010.00 1010.47 1011.02 1011.35 1011.71 1011.92 1012.08 1011.98 1012.28 1013.34 1014.33 1014.65 1015.65 1015.91 1015.96 1015.77 1015.79 1015.97 1016.12 1016.37 1016.58 1016.61 1017.01 1017.51 1017.82 1018.54 1018.83 1018.97 1019.29 1019.74 1019.92 1020.15 1019.93 1020.15 1020.74 1021.64 1022.69 1023.76 1024.68 1025.56 1026.36 1027.14 1027.81 1028.31 1028.85 1029.46 1029.95 1030.47 1031.22 1031.80 1032.09 1032.33 1032.66
1010.45 1011.05 1011.67 1011.85 1012.15 1012.35 1012.35 1012.37 1012.59 1013.28 1014.53 1015.09 1015.71 1016.19 1016.20 1016.03 1016.03 1015.93 1016.13 1016.28 1016.54 1016.60 1016.57 1016.75 1017.70 1018.31 1018.91 1019.03 1019.43 1019.62 1019.83 1019.99 1019.88 1020.27 1020.93 1021.82 1022.54 1023.45 1024.37 1025.30 1026.15 1026.87 1027.55 1028.24 1028.83 1029.37 1029.84 1030.33 1030.72 1031.10 1031.64 1031.85 1032.05 1032.21
1011.13 1011.78 1012.32 1012.56 1012.65 1012.75 1012.79 1013.25 1013.82 1014.86 1015.63 1016.15 1016.97 1016.94 1016.71 1016.71 1016.57 1016.29 1016.05 1016.42 1016.78 1016.70 1017.06 1017.25 1017.86 1018.62 1019.03 1019.37 1019.75 1019.75 1019.81 1019.95 1020.45 1021.07 1021.85 1022.52 1023.09 1024.00 1024.99 1025.89 1026.67 1027.34 1028.03 1028.64 1029.20 1029.73 1030.15 1030.56 1030.79 1030.94 1031.20 1031.30 1031.56 1031.65
1012.01 1012.68 1012.90 1013.02 1013.14 1013.41 1014.04 1014.60 1015.49 1016.16 1017.05 1017.40 1017.47 1017.51 1017.20 1016.99 1016.73 1016.50 1016.49 1016.59 1016.65 1016.78 1017.04 1017.30 1017.61 1018.49 1019.28 1019.58 1019.86 1019.66 1019.99 1020.75 1021.47 1022.05 1022.84 1023.45 1023.99 1024.73 1025.36 1026.10 1026.90 1027.51 1028.17 1028.78 1029.28 1029.73 1030.06 1030.31 1030.33 1030.39 1030.52 1030.71 1030.87 1031.02
1012.72 1013.19 1013.50 1013.63 1013.88 1014.58 1015.51 1016.16 1016.41 1017.13 1017.69 1017.80 1017.78 1017.66 1017.54 1017.39 1017.24 1017.02 1016.86 1016.83 1016.85 1016.80 1017.05 1017.54 1018.09 1018.78 1019.26 1019.51 1019.61 1020.17 1020.57 1021.13 1022.03 1023.00 1023.81 1024.34 1024.58 1025.13 1025.75 1026.39 1027.03 1027.63 1028.19 1028.70 1029.07 1029.30 1029.54 1029.68 1029.69 1029.93 1030.16 1030.44 1030.58 1030.86
1013.51 1013.99 1014.18 1014.26 1014.35 1015.27 1016.28 1017.03 1017.07 1017.30 1017.85 1018.12 1017.94 1017.94 1017.99 1017.95 1017.79 1017.58 1017.39 1017.24 1017.21 1017.22 1017.60 1018.07 1018.57 1018.91 1019.25 1019.47 1019.75 1020.09 1020.61 1021.34 1022.08 1023.12 1024.27 1024.92 1025.29 1025.62 1026.07 1026.48 1027.03 1027.63 1028.17 1028.61 1028.89 1029.13 1029.36 1029.50 1029.65 1029.84 1030.14 1030.49 1030.71 1030.97
1014.47 1014.95 1014.93 1015.01 1015.62 1016.05 1016.90 1017.51 1017.66 1017.79 1018.00 1018.14 1018.17 1018.18 1018.40 1018.27 1018.17 1018.05 1017.85 1017.61 1017.74 1017.90 1018.25 1018.46 1018.71 1019.16 1019.63 1019.81 1020.06 1020.38 1020.90 1021.37 1021.84 1022.33 1023.25 1024.60 1025.33 1025.67 1026.16 1026.63 1027.09 1027.52 1027.89 1028.36 1028.67 1029.10 1029.36 1029.42 1029.73 1030.05 1030.45 1030.92 1031.20 1031.46
1015.47 1015.44 1015.92 1016.13 1016.85 1017.17 1017.49 1017.80 1017.84 1018.03 1018.23 1018.29 1018.31 1018.48 1018.85 1019.10 1018.84 1018.35 1018.13 1018.09 1018.23 1018.07 1018.23 1018.53 1018.87 1019.35 1019.76 1020.07 1020.39 1020.69 1021.15 1021.65 1022.19 1022.72 1023.29 1023.80 1024.85 1025.47 1026.04 1026.49 1026.96 1027.42 1027.81 1028.20 1028.55 1028.89 1029.27 1029.70 1030.10 1030.45 1030.89 1031.40 1031.72 1031.92
1015.55 1015.91 1016.71 1017.24 1017.86 1018.13 1018.54 1017.99 1018.13 1018.23 1018.36 1018.51 1018.60 1018.87 1019.11 1019.10 1018.82 1018.43 1018.46 1018.47 1018.66 1019.01 1019.03 1018.99 1019.16 1019.47 1019.93 1020.42 1020.74 1021.16 1021.56 1021.95 1022.56 1023.07 1023.53 1023.96 1024.61 1025.27 1025.89 1026.48 1026.85 1027.27 1027.79 1028.29 1028.66 1029.04 1029.55 1030.19 1030.73 1031.07 1031.51 1031.81 1032.02 1032.39
1015.95 1017.08 1018.06 1018.55 1018.87 1019.27 1018.79 1018.75 1018.60 1018.62 1018.66 1018.81 1019.03 1019.26 1019.27 1019.17 1019.01 1018.98 1019.26 1019.35 1019.71 1019.75 1019.57 1019.59 1019.77 1020.19 1020.66 1021.00 1021.43 1021.80 1022.08 1022.47 1022.98 1023.55 1023.91 1024.22 1024.93 1025.67 1026.05 1026.56 1027.08 1027.46 1027.71 1028.27 1028.85 1029.45 1030.11 1030.72 1031.23 1031.60 1031.94 1032.27 1032.63 1032.94
1017.45 1019.18 1019.54 1019.85 1019.79 1019.80 1019.79 1019.70 1019.67 1019.40 1019.48 1019.41 1019.56 1019.60 1019.60 1019.57 1019.82 1019.99 1019.93 1020.05 1020.27 1020.43 1020.43 1020.33 1020.31 1020.45 1020.90 1021.55 1022.13 1022.38 1022.59 1022.76 1023.17 1023.85 1024.51 1024.62 1025.33 1026.11 1026.75 1027.22 1027.66 1028.01 1028.27 1028.60 1029.39 1029.98 1030.73 1031.24 1031.65 1032.07 1032.52 1032.90 1033.20 1033.61
1018.80 1019.89 1020.28 1020.01 1020.22 1020.12 1020.22 1020.48 1020.46 1020.21 1020.02 1019.98 1019.99 1020.11 1020.15 1020.41 1020.67 1020.52 1020.44 1020.61 1020.84 1020.99 1021.12 1021.00 1020.71 1020.97 1021.45 1021.83 1022.34 1022.80 1023.01 1023.21 1023.65 1024.37 1025.13 1025.25 1025.40 1025.71 1026.55 1027.24 1027.91 1028.52 1028.71 1028.79 1029.40 1030.27 1031.00 1031.59 1032.14 1032.66 1033.24 1033.76 1034.05 1034.31
1019.69 1020.16 1020.15 1019.91 1019.93 1020.06 1020.50 1020.69 1020.73 1020.90 1020.66 1020.55 1020.47 1020.75 1020.98 1021.26 1021.16 1021.17 1021.25 1021.34 1021.29 1021.40 1021.36 1021.37 1021.19 1021.32 1021.75 1022.49 1023.07 1023.44 1023.64 1023.85 1024.25 1024.99 1025.62 1025.99 1026.31 1026.47 1026.67 1027.23 1027.91 1028.51 1029.01 1029.38 1029.85 1030.35 1031.09 1031.94 1032.65 1033.28 1033.97 1034.65 1035.05 1035.21
1019.45 1019.95 1020.15 1020.22 1020.20 1020.32 1020.79 1021.17 1021.32 1021.09 1020.91 1020.66 1020.99 1021.46 1021.61 1021.70 1021.78 1021.97 1022.11 1022.13 1021.94 1021.93 1021.91 1021.92 1021.95 1022.02 1022.48 1023.11 1023.62 1024.05 1024.69 1025.10 1025.50 1025.89 1026.33 1027.05 1027.54 1027.71 1027.83 1028.12 1028.47 1029.11 1029.68 1030.07 1030.57 1031.05 1031.67 1032.35 1033.11 1033.83 1034.56 1035.29 1035.88 1036.29
1019.62 1019.73 1020.07 1020.45 1020.57 1020.73 1020.97 1021.24 1021.31 1021.25 1021.23 1021.20 1021.55 1021.80 1021.97 1022.11 1022.58 1022.76 1022.77 1022.67 1022.41 1022.21 1022.38 1022.70 1023.31 1023.44 1023.74 1024.15 1024.51 1024.79 1025.04 1025.19 1025.33 1025.99 1026.61 1027.54 1028.31 1029.07 1029.14 1029.27 1029.71 1030.10 1030.53 1031.02 1031.45 1032.05 1032.51 1033.05 1034.07 1035.12 1035.90 1036.43 1036.84 1037.01
1019.52 1019.47 1020.03 1020.19 1020.65 1020.58 1020.66 1020.93 1021.53 1021.84 1021.90 1022.05 1022.19 1022.46 1022.68 1022.90 1023.23 1023.46 1023.19 1022.92 1022.63 1022.53 1022.73 1023.14 1023.64 1023.77 1024.17 1024.44 1025.15 1025.74 1025.97 1025.89 1025.74 1025.96 1026.59 1027.37 1028.11 1029.16 1029.68 1030.04 1030.45 1030.79 1031.02 1031.45 1032.15 1032.84 1033.69 1034.63 1035.30 1036.30 1036.89 1037.19 1037.24 1037.35
1019.19 1019.54 1019.97 1020.20 1020.26 1020.40 1020.65 1021.23 1021.81 1022.20 1022.58 1022.72 1023.09 1023.21 1023.44 1023.61 1023.48 1023.61 1023.67 1023.57 1023.29 1023.13 1023.33 1023.77 1024.14 1024.33 1024.41 1024.70 1025.03 1025.53 1026.24 1026.61 1026.53 1026.52 1026.66 1027.29 1028.38 1029.33 1030.00 1030.50 1030.97 1031.32 1031.65 1032.23 1032.97 1033.69 1034.57 1035.37 1036.02 1036.58 1037.13 1037.51 1037.85 1037.98
1019.84 1020.07 1020.36 1020.69 1020.89 1021.06 1021.21 1021.44 1022.01 1022.46 1023.02 1023.31 1023.59 1023.83 1024.01 1024.09 1024.18 1024.16 1024.25 1023.96 1023.75 1023.77 1023.94 1024.08 1024.30 1024.67 1024.78 1025.10 1025.51 1025.84 1025.98 1026.87 1027.32 1027.61 1027.76 1028.37 1029.33 1030.11 1030.72 1031.31 1031.72 1031.99 1032.47 1033.11 1033.83 1034.51 1035.13 1035.81 1036.48 1037.03 1037.54 1037.93 1038.24 1038.47
1020.58 1020.63 1020.79 1020.98 1021.24 1021.40 1021.49 1021.69 1022.21 1022.81 1023.28 1023.62 1023.84 1024.15 1024.18 1024.32 1024.41 1024.58 1024.57 1024.49 1024.30 1024.00 1024.42 1024.82 1025.14 1025.48 1025.85 1026.18 1026.61 1027.06 1027.46 1027.96 1028.33 1028.65 1029.23 1029.87 1030.44 1030.99 1031.51 1031.92 1032.29 1032.80 1033.33 1034.09 1034.79 1035.39 1036.00 1036.55 1037.07 1037.61 1038.09 1038.37 1038.67 1038.80
Thickness
5348 5349 5353 5359 5365 5370 5375 5378 5384 5390 5392 5396 5399 5403 5409 5415 5423 5427 5412 5424 5437 5415 5406 5416 5424 5422 5421 5425 5427 5417 5420 5418 5417 5420 5426 5417 5422 5417 5417 5418 5422 5416 5416 5418 5423 5428 5427 5396 5408 5421 5397 5389 5386 5386
5345 5346 5349 5355 5357 5361 5367 5372 5376 5382 5387 5388 5392 5396 5403 5410 5415 5421 5412 5417 5425 5418 5404 5407 5413 5418 5429 5429 5420 5410 5418 5417 5415 5410 5404 5402 5408 5404 5408 5416 5407 5407 5402 5404 5397 5393 5381 5384 5386 5383 5389 5385 5381 5379
5340 5342 5346 5348 5350 5354 5360 5365 5369 5372 5377 5380 5386 5393 5397 5403 5407 5413 5404 5409 5417 5408 5405 5406 5405 5411 5420 5422 5423 5418 5407 5410 5408 5400 5399 5393 5401 5396 5403 5397 5398 5392 5392 5390 5388 5378 5375 5372 5372 5370 5371 5371 5375 5369
5335 5338 5341 5343 5342 5348 5353 5359 5362 5365 5370 5375 5381 5386 5390 5394 5399 5407 5403 5404 5414 5409 5398 5392 5401 5405 5408 5414 5415 5416 5411 5403 5398 5394 5394 5391 5398 5387 5391 5388 5390 5383 5387 5385 5376 5370 5367 5364 5362 5363 5362 5361 5359 5355
5332 5332 5337 5337 5341 5345 5347 5352 5356 5360 5363 5367 5372 5379 5384 5390 5395 5400 5400 5400 5407 5414 5397 5392 5394 5395 5400 5404 5405 5405 5404 5397 5394 5394 5392 5391 5382 5384 5380 5381 5379 5376 5380 5385 5384 5375 5372 5361 5357 5357 5356 5352 5350 5349
5329 5330 5329 5331 5334 5338 5342 5344 5348 5353 5357 5362 5366 5373 5379 5384 5391 5397 5388 5395 5403 5409 5401 5389 5380 5389 5391 5395 5396 5395 5392 5388 5387 5390 5383 5377 5375 5382 5380 5374 5365 5364 5367 5371 5372 5363 5359 5353 5349 5349 5348 5343 5341 5340
5327 5325 5325 5328 5331 5334 5338 5342 5346 5349 5352 5357 5361 5368 5374 5382 5387 5384 5386 5390 5397 5403 5395 5383 5384 5384 5389 5388 5386 5386 5384 5379 5384 5380 5379 5379 5378 5378 5378 5374 5362 5358 5359 5359 5358 5358 5351 5349 5345 5341 5338 5334 5332 5331
5322 5323 5323 5326 5327 5331 5334 5338 5340 5343 5347 5352 5358 5366 5369 5376 5379 5378 5380 5388 5395 5394 5393 5382 5379 5384 5386 5385 5385 5372 5377 5375 5373 5372 5371 5376 5373 5376 5368 5364 5359 5356 5356 5356 5353 5354 5354 5341 5335 5331 5329 5327 5327 5324
5319 5321 5320 5322 5324 5327 5331 5333 5335 5339 5343 5350 5355 5360 5366 5364 5367 5368 5376 5384 5391 5391 5381 5375 5383 5382 5379 5373 5370 5369 5368 5372 5364 5372 5372 5370 5362 5371 5366 5363 5359 5358 5357 5347 5341 5339 5337 5335 5329 5325 5323 5320 5320 5314
5317 5317 5320 5318 5323 5324 5325 5329 5332 5334 5339 5348 5351 5346 5340 5348 5358 5367 5369 5371 5374 5373 5374 5370 5367 5380 5376 5364 5363 5366 5360 5367 5373 5370 5365 5369 5362 5349 5346 5350 5352 5351 5348 5343 5338 5331 5330 5326 5324 5319 5316 5312 5310 5303
5314 5314 5315 5317 5320 5321 5323 5325 5331 5334 5341 5342 5333 5335 5342 5351 5357 5358 5354 5360 5360 5366 5366 5363 5371 5379 5366 5374 5369 5357 5361 5359 5368 5369 5369 5358 5367 5351 5341 5340 5340 5342 5341 5338 5339 5339 5335 5330 5320 5312 5306 5302 5296 5290
5312 5313 5312 5315 5315 5317 5318 5321 5327 5331 5333 5339 5343 5340 5343 5346 5349 5352 5352 5358 5363 5368 5359 5363 5366 5372 5369 5366 5366 5355 5362 5357 5365 5359 5365 5360 5354 5341 5339 5335 5332 5332 5331 5328 5329 5327 5324 5319 5312 5306 5299 5292 5287 5281
5307 5308 5310 5310 5311 5313 5314 5319 5326 5324 5328 5333 5337 5335 5339 5336 5334 5338 5343 5353 5357 5356 5355 5361 5362 5367 5365 5365 5361 5369 5359 5355 5355 5356 5362 5365 5341 5338 5335 5331 5326 5324 5323 5320 5316 5313 5309 5304 5300 5295 5286 5280 5275 5270
5303 5304 5303 5306 5308 5311 5313 5317 5320 5327 5331 5326 5325 5323 5323 5337 5340 5341 5352 5354 5352 5354 5358 5361 5357 5368 5353 5360 5342 5352 5348 5357 5358 5350 5368 5358 5341 5335 5331 5326 5320 5312 5309 5307 5302 5298 5294 5290 5283 5279 5276 5272 5269 5266
5300 5299 5300 5301 5303 5306 5310 5314 5322 5327 5322 5321 5326 5328 5331 5333 5341 5346 5342 5354 5354 5349 5357 5359 5357 5358 5344 5347 5350 5355 5358 5351 5352 5365 5361 5344 5338 5333 5326 5320 5311 5305 5299 5295 5292 5290 5284 5281 5281 5274 5268 5266 5264 5257
5295 5294 5294 5298 5300 5304 5310 5316 5321 5322 5317 5323 5323 5327 5327 5337 5345 5350 5349 5353 5349 5349 5353 5360 5350 5345 5344 5344 5349 5345 5358 5351 5361 5350 5341 5332 5332 5325 5319 5313 5306 5300 5297 5291 5289 5285 5281 5277 5276 5274 5265 5263 5257 5255
5293 5293 5293 5296 5301 5306 5311 5314 5315 5311 5312 5318 5313 5313 5326 5330 5333 5343 5351 5350 5340 5355 5352 5353 5347 5346 5342 5344 5346 5347 5353 5353 5340 5339 5334 5329 5330 5322 5312 5305 5298 5295 5292 5288 5283 5281 5278 5273 5270 5269 5268 5263 5256 5253
5289 5288 5290 5295 5300 5303 5303 5304 5304 5306 5300 5302 5310 5311 5315 5325 5335 5341 5342 5343 5349 5352 5352 5356 5351 5345 5335 5340 5345 5341 5338 5330 5327 5329 5324 5319 5317 5311 5309 5304 5296 5293 5289 5283 5281 5277 5274 5270 5271 5270 5265 5260 5256 5250
5285 5286 5289 5293 5296 5295 5294 5294 5298 5295 5295 5302 5305 5310 5315 5322 5326 5331 5336 5338 5340 5343 5347 5345 5344 5348 5345 5332 5340 5328 5333 5332 5328 5317 5310 5305 5310 5307 5302 5297 5292 5289 5285 5281 5279 5278 5274 5271 5269 5265 5260 5253 5249 5240
5281 5282 5286 5290 5294 5292 5292 5288 5294 5297 5295 5298 5305 5311 5310 5315 5317 5317 5328 5336 5340 5342 5343 5342 5343 5337 5337 5334 5330 5332 5328 5324 5321 5318 5310 5303 5302 5300 5298 5296 5292 5286 5282 5278 5275 5271 5269 5266 5262 5257 5251 5243 5237 5229
5276 5277 5281 5286 5285 5287 5285 5284 5286 5292 5295 5298 5302 5306 5304 5309 5313 5317 5323 5329 5332 5336 5339 5330 5329 5323 5323 5325 5325 5324 5323 5325 5326 5328 5321 5305 5298 5299 5295 5291 5287 5283 5280 5275 5272 5266 5260 5260 5253 5246 5239 5229 5219 5211
5268 5272 5272 5275 5275 5278 5282 5281 5286 5288 5292 5295 5301 5302 5296 5293 5298 5309 5320 5324 5329 5332 5331 5330 5327 5326 5323 5323 5321 5321 5320 5319 5315 5312 5309 5306 5300 5295 5291 5286 5283 5278 5275 5270 5266 5262 5256 5249 5241 5233 5225 5214 5205 5196
5266 5268 5265 5267 5263 5258 5266 5278 5278 5286 5279 5289 5293 5294 5291 5292 5303 5312 5311 5326 5321 5311 5316 5322 5325 5324 5320 5318 5317 5316 5316 5315 5311 5308 5305 5303 5297 5292 5286 5281 5278 5273 5268 5262 5257 5252 5246 5235 5226 5219 5210 5201 5193 5182
5263 5257 5250 5248 5255 5251 5267 5271 5280 5285 5283 5286 5288 5288 5295 5299 5302 5306 5308 5310 5304 5305 5313 5317 5317 5314 5313 5313 5310 5309 5307 5306 5303 5299 5298 5296 5290 5283 5280 5275 5270 5265 5262 5254 5248 5240 5231 5222 5214 5207 5197 5188 5175 5166
5251 5241 5239 5227 5250 5246 5253 5260 5256 5273 5268 5270 5277 5279 5286 5287 5283 5288 5305 5303 5296 5297 5300 5307 5311 5312 5311 5303 5300 5301 5301 5302 5300 5295 5288 5288 5280 5273 5267 5262 5257 5253 5249 5244 5235 5227 5216 5208 5202 5193 5183 5173 5164 5149
5229 5226 5236 5232 5243 5248 5245 5253 5253 5246 5264 5278 5271 5272 5273 5277 5285 5294 5301 5296 5292 5293 5293 5297 5307 5307 5303 5302 5299 5297 5295 5294 5292 5286 5278 5277 5276 5273 5264 5258 5252 5244 5238 5235 5227 5217 5207 5197 5190 5180 5168 5155 5140 5133
5228 5228 5243 5247 5252 5257 5245 5243 5251 5246 5253 5267 5278 5272 5269 5280 5280 5287 5285 5286 5291 5292 5293 5295 5300 5302 5299 5291 5287 5285 5284 5282 5280 5274 5267 5263 5260 5258 5256 5251 5244 5237 5228 5223 5216 5208 5198 5187 5176 5164 5151 5137 5124 5113
5240 5239 5237 5243 5251 5252 5249 5242 5243 5244 5257 5263 5266 5273 5271 5278 5288 5276 5275 5275 5282 5283 5284 5285 5287 5289 5287 5282 5278 5275 5270 5266 5262 5258 5254 5247 5242 5240 5237 5234 5230 5223 5216 5209 5202 5194 5185 5174 5162 5150 5138 5125 5108 5094
5246 5241 5239 5247 5232 5244 5237 5244 5250 5250 5253 5263 5270 5269 5267 5266 5261 5263 5267 5271 5275 5281 5278 5276 5271 5271 5270 5268 5266 5264 5262 5261 5260 5253 5247 5239 5233 5224 5221 5219 5214 5208 5201 5194 5186 5177 5168 5157 5145 5133 5119 5106 5090 5078
5240 5247 5237 5231 5239 5251 5248 5247 5242 5240 5245 5249 5251 5252 5255 5254 5254 5256 5262 5267 5274 5276 5273 5268 5264 5265 5263 5262 5255 5251 5248 5247 5247 5248 5240 5233 5228 5216 5211 5206 5200 5194 5188 5181 5171 5159 5148 5137 5125 5113 5101 5090 5078 5067
5254 5252 5249 5253 5260 5250 5248 5241 5236 5235 5238 5241 5238 5252 5254 5248 5250 5251 5253 5255 5257 5261 5260 5257 5256 5256 5256 5253 5251 5248 5242 5235 5233 5233 5231 5226 5217 5209 5202 5196 5189 5182 5174 5166 5155 5145 5133 5121 5111 5100 5088 5076 5062 5051
5251 5253 5248 5247 5245 5238 5243 5249 5248 5242 5234 5239 5240 5233 5237 5245 5252 5244 5242 5246 5251 5252 5250 5251 5251 5248 5246 5243 5239 5236 5235 5226 5222 5220 5217 5212 5204 5196 5189 5182 5176 5169 5160 5151 5140 5130 5120 5109 5097 5086 5074 5062 5049 5038
5243 5246 5244 5243 5239 5239 5243 5249 5242 5235 5228 5232 5233 5227 5234 5240 5247 5237 5233 5234 5239 5245 5242 5239 5236 5234 5231 5228 5225 5221 5218 5213 5209 5206 5201 5196 5190 5183 5176 5169 5162 5154 5145 5135 5125 5115 5105 5094 5082 5071 5059 5047 5037 5029